Time,TemperatureF,DewpointF,PressureIn,WindDirection,WindDirectionDegrees,WindSpeedMPH,WindSpeedGustMPH,Humidity,HourlyPrecipIn,Conditions,Clouds,dailyrainin,SoftwareType,DateUTC
2013-03-20 00:00:00,33.4,30.3,29.57,NW,315,4.7,5.8,88,0.00,CLR,,0.83,WeatherDisplay:10.37,2013-03-20 04:00:00,
2013-03-20 00:05:00,33.3,30.1,29.58,NW,315,0.5,4.6,88,0.00,RA,,0.00,WeatherDisplay:10.37,2013-03-20 04:05:00,
2013-03-20 00:11:00,33.3,30.1,29.59,WNW,292,1.8,8.1,88,0.00,CLR,,0.00,WeatherDisplay:10.37,2013-03-20 04:11:00,
2013-03-20 00:16:00,33.3,30.1,29.59,West,270,1.8,4.6,88,0.00,CLR,,0.00,WeatherDisplay:10.37,2013-03-20 04:16:00,
2013-03-20 00:21:00,33.3,29.8,29.58,WNW,292,6.9,10.4,87,0.00,CLR,,0.00,WeatherDisplay:10.37,2013-03-20 04:21:00,
2013-03-20 00:26:00,33.1,29.3,29.59,NW,315,1.8,8.1,86,0.00,CLR,,0.00,WeatherDisplay:10.37,2013-03-20 04:26:00,
2013-03-20 00:31:00,33.1,29.3,29.59,WSW,248,1.8,2.3,86,0.00,CLR,,0.00,WeatherDisplay:10.37,2013-03-20 04:31:00,
2013-03-20 00:36:00,33.1,29.6,29.60,ESE,112,5.9,5.9,87,0.00,CLR,,0.00,WeatherDisplay:10.37,2013-03-20 04:36:00,
2013-03-20 00:41:00,33.1,29.6,29.60,West,270,1.1,4.7,87,0.00,CLR,,0.00,WeatherDisplay:10.37,2013-03-20 04:41:00,
2013-03-20 00:46:00,32.9,29.2,29.61,North,0,1.6,3.5,86,0.00,CLR,,0.00,WeatherDisplay:10.37,2013-03-20 04:46:00,
2013-03-20 00:51:00,32.7,29.0,29.61,WSW,248,0.0,3.5,86,0.00,CLR,,0.00,WeatherDisplay:10.37,2013-03-20 04:51:00,
2013-03-20 00:56:00,32.7,29.0,29.60,WNW,292,0.2,2.3,86,0.00,CLR,,0.00,WeatherDisplay:10.37,2013-03-20 04:56:00,
2013-03-20 01:01:00,32.5,28.8,29.60,NW,315,0.5,2.3,86,0.00,CLR,,0.00,WeatherDisplay:10.37,2013-03-20 05:01:00,
2013-03-20 01:07:00,32.4,28.6,29.60,NW,315,0.0,0.0,86,0.00,CLR,,0.00,WeatherDisplay:10.37,2013-03-20 05:07:00,
2013-03-20 01:12:00,32.4,28.6,29.60,NW,315,0.0,0.0,86,0.00,CLR,,0.00,WeatherDisplay:10.37,2013-03-20 05:12:00,
2013-03-20 01:17:00,32.4,28.6,29.61,NW,315,0.0,0.0,86,0.00,CLR,,0.00,WeatherDisplay:10.37,2013-03-20 05:17:00,
2013-03-20 01:22:00,32.0,28.3,29.61,NW,315,0.0,0.0,86,0.00,CLR,,0.00,WeatherDisplay:10.37,2013-03-20 05:22:00,
2013-03-20 01:27:00,31.8,27.8,29.61,NW,315,0.0,0.0,85,0.00,CLR,,0.00,WeatherDisplay:10.37,2013-03-20 05:27:00,
2013-03-20 01:32:00,31.6,27.6,29.62,NW,315,0.0,0.0,85,0.00,CLR,,0.00,WeatherDisplay:10.37,2013-03-20 05:32:00,
2013-03-20 01:37:00,31.5,27.8,29.62,NW,315,0.0,0.0,86,0.00,CLR,,0.00,WeatherDisplay:10.37,2013-03-20 05:37:00,
2013-03-20 01:42:00,31.3,27.3,29.63,NW,315,0.0,0.0,85,0.00,CLR,,0.00,WeatherDisplay:10.37,2013-03-20 05:42:00,
2013-03-20 01:47:00,31.3,27.6,29.63,NW,315,0.0,0.0,86,0.00,CLR,,0.00,WeatherDisplay:10.37,2013-03-20 05:47:00,
2013-03-20 01:52:00,31.3,27.6,29.63,NW,315,0.0,0.0,86,0.00,CLR,,0.00,WeatherDisplay:10.37,2013-03-20 05:52:00,
2013-03-20 01:57:00,31.3,27.6,29.64,NW,315,0.0,0.0,86,0.00,CLR,,0.00,WeatherDisplay:10.37,2013-03-20 05:57:00,
2013-03-20 02:02:00,31.3,27.3,29.64,NW,315,0.0,0.0,85,0.00,CLR,,0.00,WeatherDisplay:10.37,2013-03-20 06:02:00,
2013-03-20 02:07:00,31.3,27.3,29.64,NW,315,0.0,0.0,85,0.00,CLR,,0.00,WeatherDisplay:10.37,2013-03-20 06:07:00,
2013-03-20 02:12:00,31.1,27.1,29.64,NW,315,0.0,0.0,85,0.00,CLR,,0.00,WeatherDisplay:10.37,2013-03-20 06:12:00,
2013-03-20 02:18:00,30.9,26.9,29.64,NW,315,0.0,0.0,85,0.00,CLR,,0.00,WeatherDisplay:10.37,2013-03-20 06:18:00,
2013-03-20 02:23:00,30.9,26.9,29.65,NW,315,0.0,0.0,85,0.00,CLR,,0.00,WeatherDisplay:10.37,2013-03-20 06:23:00,
2013-03-20 02:28:00,30.9,26.9,29.64,NW,315,0.0,0.0,85,0.00,CLR,,0.00,WeatherDisplay:10.37,2013-03-20 06:28:00,
2013-03-20 02:33:00,30.7,26.5,29.64,NW,315,0.0,0.0,84,0.00,CLR,,0.00,WeatherDisplay:10.37,2013-03-20 06:33:00,
2013-03-20 02:38:00,30.6,26.3,29.65,NW,315,0.0,0.0,84,0.00,CLR,,0.00,WeatherDisplay:10.37,2013-03-20 06:38:00,
2013-03-20 02:43:00,30.6,26.0,29.64,NW,315,0.0,0.0,83,0.00,CLR,,0.00,WeatherDisplay:10.37,2013-03-20 06:43:00,
2013-03-20 02:48:00,30.6,26.3,29.65,NW,315,0.0,0.0,84,0.00,CLR,,0.00,WeatherDisplay:10.37,2013-03-20 06:48:00,
2013-03-20 02:53:00,30.4,26.1,29.65,NW,315,0.0,0.0,84,0.00,CLR,,0.00,WeatherDisplay:10.37,2013-03-20 06:53:00,
2013-03-20 02:58:00,30.4,26.1,29.65,NW,315,0.0,0.0,84,0.00,CLR,,0.00,WeatherDisplay:10.37,2013-03-20 06:58:00,
2013-03-20 03:03:00,30.4,26.1,29.66,NW,315,0.0,0.0,84,0.00,CLR,,0.00,WeatherDisplay:10.37,2013-03-20 07:03:00,
2013-03-20 03:08:00,30.4,26.1,29.66,NW,315,0.0,0.0,84,0.00,CLR,,0.00,WeatherDisplay:10.37,2013-03-20 07:08:00,
2013-03-20 03:13:00,30.4,26.1,29.65,NW,315,0.0,0.0,84,0.00,CLR,,0.00,WeatherDisplay:10.37,2013-03-20 07:13:00,
2013-03-20 03:18:00,30.2,25.9,29.66,NW,315,0.0,0.0,84,0.00,CLR,,0.00,WeatherDisplay:10.37,2013-03-20 07:18:00,
2013-03-20 03:23:00,30.2,26.2,29.66,NW,315,0.0,0.0,85,0.00,CLR,,0.00,WeatherDisplay:10.37,2013-03-20 07:23:00,
2013-03-20 03:28:00,30.2,26.2,29.66,NW,315,0.0,0.0,85,0.00,CLR,,0.00,WeatherDisplay:10.37,2013-03-20 07:28:00,
2013-03-20 03:33:00,30.2,25.9,29.66,NW,315,0.0,0.0,84,0.00,CLR,,0.00,WeatherDisplay:10.37,2013-03-20 07:33:00,
2013-03-20 03:38:00,30.2,25.9,29.66,NW,315,0.0,0.0,84,0.00,CLR,,0.00,WeatherDisplay:10.37,2013-03-20 07:38:00,
2013-03-20 03:43:00,30.2,25.9,29.66,NW,315,0.0,0.0,84,0.00,CLR,,0.00,WeatherDisplay:10.37,2013-03-20 07:43:00,
2013-03-20 03:48:00,30.0,25.8,29.67,NW,315,0.0,0.0,84,0.00,CLR,,0.00,WeatherDisplay:10.37,2013-03-20 07:48:00,
2013-03-20 03:53:00,29.8,25.6,29.67,NW,315,0.0,0.0,84,0.00,CLR,,0.00,WeatherDisplay:10.37,2013-03-20 07:53:00,
2013-03-20 03:58:00,29.7,25.7,29.67,NW,315,0.0,0.0,85,0.00,CLR,,0.00,WeatherDisplay:10.37,2013-03-20 07:58:00,
2013-03-20 04:03:00,29.7,25.7,29.67,NW,315,0.0,0.0,85,0.00,CLR,,0.00,WeatherDisplay:10.37,2013-03-20 08:03:00,
2013-03-20 04:08:00,29.5,25.5,29.67,NW,315,0.0,0.0,85,0.00,CLR,,0.00,WeatherDisplay:10.37,2013-03-20 08:08:00,
2013-03-20 04:13:00,29.5,25.5,29.67,NW,315,0.0,0.0,85,0.00,CLR,,0.00,WeatherDisplay:10.37,2013-03-20 08:13:00,
2013-03-20 04:18:00,29.7,25.4,29.67,NW,315,0.0,0.0,84,0.00,CLR,,0.00,WeatherDisplay:10.37,2013-03-20 08:18:00,
2013-03-20 04:23:00,29.7,25.4,29.67,NW,315,0.0,0.0,84,0.00,CLR,,0.00,WeatherDisplay:10.37,2013-03-20 08:23:00,
2013-03-20 04:28:00,29.8,25.6,29.67,NW,315,0.0,0.0,84,0.00,CLR,,0.00,WeatherDisplay:10.37,2013-03-20 08:28:00,
2013-03-20 04:33:00,29.8,25.6,29.67,NW,315,0.0,0.0,84,0.00,CLR,,0.00,WeatherDisplay:10.37,2013-03-20 08:33:00,
2013-03-20 04:38:00,29.8,25.3,29.67,NW,315,0.0,0.0,83,0.00,CLR,,0.00,WeatherDisplay:10.37,2013-03-20 08:38:00,
2013-03-20 04:43:00,29.5,25.0,29.67,NW,315,0.0,0.0,83,0.00,CLR,,0.00,WeatherDisplay:10.37,2013-03-20 08:43:00,
2013-03-20 04:48:00,29.5,25.0,29.67,NW,315,0.0,0.0,83,0.00,CLR,,0.00,WeatherDisplay:10.37,2013-03-20 08:48:00,
2013-03-20 04:53:00,29.3,24.8,29.67,NW,315,0.0,0.0,83,0.00,CLR,,0.00,WeatherDisplay:10.37,2013-03-20 08:53:00,
2013-03-20 04:58:00,29.3,24.8,29.67,NW,315,0.0,0.0,83,0.00,CLR,,0.00,WeatherDisplay:10.37,2013-03-20 08:58:00,
2013-03-20 05:03:00,29.1,24.6,29.67,NW,315,0.0,0.0,83,0.00,CLR,,0.00,WeatherDisplay:10.37,2013-03-20 09:03:00,
2013-03-20 05:08:00,29.1,24.6,29.68,NW,315,0.0,0.0,83,0.00,CLR,,0.00,WeatherDisplay:10.37,2013-03-20 09:08:00,
2013-03-20 05:13:00,29.1,24.6,29.68,NW,315,0.0,0.0,83,0.00,CLR,,0.00,WeatherDisplay:10.37,2013-03-20 09:13:00,
2013-03-20 05:18:00,28.9,24.4,29.68,NW,315,0.0,0.0,83,0.00,CLR,,0.00,WeatherDisplay:10.37,2013-03-20 09:18:00,
2013-03-20 05:23:00,28.8,24.2,29.68,NW,315,0.0,0.0,83,0.00,CLR,,0.00,WeatherDisplay:10.37,2013-03-20 09:23:00,
2013-03-20 05:28:00,28.6,24.1,29.68,NW,315,0.0,0.0,83,0.00,CLR,,0.00,WeatherDisplay:10.37,2013-03-20 09:28:00,
2013-03-20 05:33:00,28.4,24.2,29.68,NW,315,0.0,0.0,84,0.00,CLR,,0.00,WeatherDisplay:10.37,2013-03-20 09:33:00,
2013-03-20 05:38:00,28.4,24.2,29.69,NW,315,0.0,0.0,84,0.00,CLR,,0.00,WeatherDisplay:10.37,2013-03-20 09:38:00,
2013-03-20 05:43:00,28.4,24.2,29.69,NW,315,0.0,0.0,84,0.00,CLR,,0.00,WeatherDisplay:10.37,2013-03-20 09:43:00,
2013-03-20 05:48:00,28.4,23.9,29.69,NW,315,0.0,0.0,83,0.00,CLR,,0.00,WeatherDisplay:10.37,2013-03-20 09:48:00,
2013-03-20 05:53:00,28.6,24.1,29.69,NW,315,0.0,0.0,83,0.00,CLR,,0.00,WeatherDisplay:10.37,2013-03-20 09:53:00,
2013-03-20 05:58:00,28.8,23.4,29.69,NW,315,0.0,0.0,80,0.00,CLR,,0.00,WeatherDisplay:10.37,2013-03-20 09:58:00,
2013-03-20 06:03:00,28.9,23.2,29.69,NW,315,0.0,0.0,79,0.00,CLR,,0.00,WeatherDisplay:10.37,2013-03-20 10:03:00,
2013-03-20 06:08:00,29.1,23.4,29.69,NW,315,0.0,0.0,79,0.00,CLR,,0.00,WeatherDisplay:10.37,2013-03-20 10:08:00,
2013-03-20 06:13:00,29.1,22.5,29.69,NW,315,0.0,0.0,76,0.00,CLR,,0.00,WeatherDisplay:10.37,2013-03-20 10:13:00,
2013-03-20 06:18:00,29.3,22.4,29.69,NW,315,0.0,0.0,75,0.00,CLR,,0.00,WeatherDisplay:10.37,2013-03-20 10:18:00,
2013-03-20 06:23:00,29.1,21.9,29.69,NW,315,0.0,0.0,74,0.00,CLR,,0.00,WeatherDisplay:10.37,2013-03-20 10:23:00,
2013-03-20 06:28:00,29.3,22.4,29.69,NW,315,0.0,0.0,75,0.00,CLR,,0.00,WeatherDisplay:10.37,2013-03-20 10:28:00,
2013-03-20 06:33:00,29.1,21.9,29.69,NW,315,0.0,0.0,74,0.00,CLR,,0.00,WeatherDisplay:10.37,2013-03-20 10:33:00,
2013-03-20 06:38:00,29.1,22.2,29.69,NW,315,0.0,0.0,75,0.00,CLR,,0.00,WeatherDisplay:10.37,2013-03-20 10:38:00,
2013-03-20 06:43:00,29.1,22.5,29.69,NW,315,0.0,0.0,76,0.00,CLR,,0.00,WeatherDisplay:10.37,2013-03-20 10:43:00,
2013-03-20 06:48:00,28.9,22.0,29.69,NW,315,0.0,0.0,75,0.00,CLR,,0.00,WeatherDisplay:10.37,2013-03-20 10:48:00,
2013-03-20 06:53:00,28.9,21.4,29.69,NW,315,0.0,0.0,73,0.00,CLR,,0.00,WeatherDisplay:10.37,2013-03-20 10:53:00,
2013-03-20 06:58:00,28.8,21.5,29.69,NW,315,0.0,0.0,74,0.00,CLR,,0.00,WeatherDisplay:10.37,2013-03-20 10:58:00,
2013-03-20 07:03:00,28.9,21.4,29.69,NW,315,0.0,0.0,73,0.00,CLR,,0.00,WeatherDisplay:10.37,2013-03-20 11:03:00,
2013-03-20 07:08:00,29.1,21.9,29.69,NW,315,0.0,0.0,74,0.00,CLR,,0.00,WeatherDisplay:10.37,2013-03-20 11:08:00,
2013-03-20 07:13:00,29.1,21.9,29.69,NW,315,0.0,0.0,74,0.00,CLR,,0.00,WeatherDisplay:10.37,2013-03-20 11:13:00,
2013-03-20 07:18:00,29.1,21.9,29.70,NW,315,0.0,0.0,74,0.00,CLR,,0.00,WeatherDisplay:10.37,2013-03-20 11:18:00,
2013-03-20 07:23:00,29.1,21.9,29.70,NW,315,0.0,0.0,74,0.00,CLR,,0.00,WeatherDisplay:10.37,2013-03-20 11:23:00,
2013-03-20 07:28:00,29.3,22.0,29.70,NW,315,0.0,0.0,74,0.00,CLR,,0.00,WeatherDisplay:10.37,2013-03-20 11:28:00,
2013-03-20 07:33:00,29.7,22.4,29.70,NW,315,0.0,0.0,74,0.00,CLR,,0.00,WeatherDisplay:10.37,2013-03-20 11:33:00,
2013-03-20 07:38:00,29.7,22.1,29.70,NW,315,0.0,0.0,73,0.00,CLR,,0.00,WeatherDisplay:10.37,2013-03-20 11:38:00,
2013-03-20 07:43:00,30.0,22.4,29.71,NW,315,0.0,0.0,73,0.00,CLR,,0.00,WeatherDisplay:10.37,2013-03-20 11:43:00,
2013-03-20 07:48:00,30.2,22.3,29.71,NW,315,0.0,0.0,72,0.00,CLR,,0.00,WeatherDisplay:10.37,2013-03-20 11:48:00,
2013-03-20 07:53:00,30.6,22.6,29.71,NW,315,0.0,0.0,72,0.00,CLR,,0.00,WeatherDisplay:10.37,2013-03-20 11:53:00,
2013-03-20 07:58:00,30.7,22.1,29.71,NW,315,0.0,0.0,70,0.00,CLR,,0.00,WeatherDisplay:10.37,2013-03-20 11:58:00,
2013-03-20 08:03:00,31.1,22.5,29.71,NW,315,0.0,0.0,70,0.00,CLR,,0.00,WeatherDisplay:10.37,2013-03-20 12:03:00,
2013-03-20 08:08:00,31.3,22.3,29.71,NW,315,0.0,0.0,69,0.00,CLR,,0.00,WeatherDisplay:10.37,2013-03-20 12:08:00,
2013-03-20 08:14:00,31.6,22.6,29.71,NW,315,0.0,0.0,69,0.00,CLR,,0.00,WeatherDisplay:10.37,2013-03-20 12:14:00,
2013-03-20 08:19:00,32.0,22.3,29.71,WNW,292,0.0,3.5,67,0.00,CLR,,0.00,WeatherDisplay:10.37,2013-03-20 12:19:00,
2013-03-20 08:24:00,32.2,23.5,29.71,SW,225,0.0,0.0,70,0.00,CLR,,0.00,WeatherDisplay:10.37,2013-03-20 12:24:00,
2013-03-20 08:29:00,32.4,23.0,29.71,SW,225,0.0,0.0,68,0.00,CLR,,0.00,WeatherDisplay:10.37,2013-03-20 12:29:00,
2013-03-20 08:34:00,32.7,23.3,29.71,SW,225,0.0,0.0,68,0.00,CLR,,0.00,WeatherDisplay:10.37,2013-03-20 12:34:00,
2013-03-20 08:39:00,33.1,23.3,29.71,SW,225,0.0,0.0,67,0.00,CLR,,0.00,WeatherDisplay:10.37,2013-03-20 12:39:00,
2013-03-20 08:44:00,33.1,23.3,29.71,West,270,0.0,0.0,67,0.00,CLR,,0.00,WeatherDisplay:10.37,2013-03-20 12:44:00,
2013-03-20 08:49:00,33.4,23.7,29.71,NW,315,2.6,2.6,67,0.00,CLR,,0.00,WeatherDisplay:10.37,2013-03-20 12:49:00,
2013-03-20 08:54:00,33.4,22.2,29.71,West,270,0.0,0.0,63,0.00,CLR,,0.00,WeatherDisplay:10.37,2013-03-20 12:54:00,
2013-03-20 08:59:00,33.6,23.1,29.71,NW,315,0.0,0.0,65,0.00,CLR,,0.00,WeatherDisplay:10.37,2013-03-20 12:59:00,
2013-03-20 09:04:00,34.0,22.7,29.71,SSW,202,0.5,4.6,63,0.00,CLR,,0.00,WeatherDisplay:10.37,2013-03-20 13:04:00,
2013-03-20 09:09:00,34.2,22.5,29.71,West,270,2.0,4.6,62,0.00,CLR,,0.00,WeatherDisplay:10.37,2013-03-20 13:09:00,
2013-03-20 09:14:00,34.2,21.7,29.71,West,270,2.6,4.6,60,0.00,CLR,,0.00,WeatherDisplay:10.37,2013-03-20 13:14:00,
2013-03-20 09:19:00,34.3,22.3,29.72,NW,315,7.1,7.1,61,0.00,CLR,,0.00,WeatherDisplay:10.37,2013-03-20 13:19:00,
2013-03-20 09:24:00,34.7,22.6,29.72,NW,315,2.4,4.6,61,0.00,CLR,,0.00,WeatherDisplay:10.37,2013-03-20 13:24:00,
2013-03-20 09:29:00,34.9,22.8,29.72,SSW,202,0.5,2.3,61,0.00,CLR,,0.00,WeatherDisplay:10.37,2013-03-20 13:29:00,
2013-03-20 09:34:00,35.4,22.9,29.72,SSW,202,2.9,3.5,60,0.00,CLR,,0.00,WeatherDisplay:10.37,2013-03-20 13:34:00,
2013-03-20 09:39:00,35.6,23.1,29.72,West,270,2.9,3.5,60,0.00,CLR,,0.00,WeatherDisplay:10.37,2013-03-20 13:39:00,
2013-03-20 09:44:00,35.6,23.1,29.72,NW,315,2.4,4.6,60,0.00,CLR,,0.00,WeatherDisplay:10.37,2013-03-20 13:44:00,
2013-03-20 09:49:00,35.8,23.2,29.71,NNW,338,6.4,6.4,60,0.00,CLR,,0.00,WeatherDisplay:10.37,2013-03-20 13:49:00,
2013-03-20 09:54:00,36.0,23.4,29.71,West,270,1.8,2.3,60,0.00,CLR,,0.00,WeatherDisplay:10.37,2013-03-20 13:54:00,
2013-03-20 09:59:00,36.1,22.8,29.71,South,180,1.1,4.6,58,0.00,CLR,,0.00,WeatherDisplay:10.37,2013-03-20 13:59:00,
2013-03-20 10:04:00,36.1,21.9,29.71,WNW,292,4.3,8.1,56,0.00,CLR,,0.00,WeatherDisplay:10.37,2013-03-20 14:04:00,
2013-03-20 10:09:00,36.1,21.9,29.71,NW,315,3.3,4.6,56,0.00,CLR,,0.00,WeatherDisplay:10.37,2013-03-20 14:09:00,
2013-03-20 10:14:00,36.1,22.4,29.71,West,270,4.5,4.6,57,0.00,CLR,,0.00,WeatherDisplay:10.37,2013-03-20 14:14:00,
2013-03-20 10:19:00,36.3,22.5,29.71,NW,315,1.6,1.6,57,0.00,CLR,,0.00,WeatherDisplay:10.37,2013-03-20 14:19:00,
2013-03-20 10:24:00,36.7,22.9,29.71,WNW,292,4.3,4.6,57,0.00,CLR,,0.00,WeatherDisplay:10.37,2013-03-20 14:24:00,
2013-03-20 10:29:00,36.3,22.5,29.71,WSW,248,2.0,5.8,57,0.00,CLR,,0.00,WeatherDisplay:10.37,2013-03-20 14:29:00,
2013-03-20 10:34:00,36.5,22.3,29.71,SW,225,2.2,4.6,56,0.00,CLR,,0.00,WeatherDisplay:10.37,2013-03-20 14:34:00,
2013-03-20 10:39:00,36.7,22.9,29.72,West,270,3.3,3.5,57,0.00,CLR,,0.00,WeatherDisplay:10.37,2013-03-20 14:39:00,
2013-03-20 10:44:00,36.3,21.7,29.72,WNW,292,1.1,5.8,55,0.00,CLR,,0.00,WeatherDisplay:10.37,2013-03-20 14:44:00,
2013-03-20 10:49:00,36.0,21.8,29.71,North,0,2.9,2.9,56,0.00,CLR,,0.00,WeatherDisplay:10.37,2013-03-20 14:49:00,
2013-03-20 10:54:00,36.0,21.8,29.71,SW,225,0.9,2.3,56,0.00,CLR,,0.00,WeatherDisplay:10.37,2013-03-20 14:54:00,
2013-03-20 10:59:00,35.8,20.7,29.71,WNW,292,7.8,7.8,54,0.00,CLR,,0.00,WeatherDisplay:10.37,2013-03-20 14:59:00,
2013-03-20 11:04:00,36.0,22.2,29.71,West,270,2.6,2.6,57,0.00,CLR,,0.00,WeatherDisplay:10.37,2013-03-20 15:04:00,
2013-03-20 11:09:00,35.6,21.4,29.72,NNW,338,1.1,1.1,56,0.00,CLR,,0.00,WeatherDisplay:10.37,2013-03-20 15:09:00,
2013-03-20 11:14:00,35.8,21.6,29.72,SSE,158,4.0,4.0,56,0.00,CLR,,0.00,WeatherDisplay:10.37,2013-03-20 15:14:00,
2013-03-20 11:19:00,36.1,22.8,29.71,WNW,292,0.5,1.1,58,0.00,CLR,,0.00,WeatherDisplay:10.37,2013-03-20 15:19:00,
2013-03-20 11:24:00,36.3,22.9,29.72,NW,315,0.9,1.1,58,0.00,CLR,,0.00,WeatherDisplay:10.37,2013-03-20 15:24:00,
2013-03-20 11:29:00,37.0,23.2,29.72,West,270,3.6,3.6,57,0.00,CLR,,0.00,WeatherDisplay:10.37,2013-03-20 15:29:00,
2013-03-20 11:34:00,37.6,22.4,29.71,SSW,202,2.4,4.6,54,0.00,CLR,,0.00,WeatherDisplay:10.37,2013-03-20 15:34:00,
2013-03-20 11:39:00,38.3,23.1,29.71,NNW,338,1.6,2.3,54,0.00,CLR,,0.00,WeatherDisplay:10.37,2013-03-20 15:39:00,
2013-03-20 11:44:00,39.4,24.1,29.71,NNW,338,1.8,1.8,54,0.00,CLR,,0.00,WeatherDisplay:10.37,2013-03-20 15:44:00,
2013-03-20 11:49:00,40.5,24.2,29.71,SW,225,1.4,2.3,52,0.00,CLR,,0.00,WeatherDisplay:10.37,2013-03-20 15:49:00,
2013-03-20 11:54:00,40.6,23.9,29.71,NNW,338,0.9,2.3,51,0.00,CLR,,0.00,WeatherDisplay:10.37,2013-03-20 15:54:00,
2013-03-20 11:59:00,41.2,24.4,29.70,NNW,338,2.4,2.4,51,0.00,CLR,,0.00,WeatherDisplay:10.37,2013-03-20 15:59:00,
2013-03-20 12:04:00,40.8,22.6,29.70,WNW,292,4.3,5.8,48,0.00,CLR,,0.00,WeatherDisplay:10.37,2013-03-20 16:04:00,
2013-03-20 12:09:00,39.6,21.5,29.70,WSW,248,1.1,4.6,48,0.00,CLR,,0.00,WeatherDisplay:10.37,2013-03-20 16:09:00,
2013-03-20 12:14:00,39.2,21.6,29.70,South,180,0.7,2.3,49,0.00,CLR,,0.00,WeatherDisplay:10.37,2013-03-20 16:14:00,
2013-03-20 12:19:00,39.6,22.4,29.70,WNW,292,2.4,2.4,50,0.00,CLR,,0.00,WeatherDisplay:10.37,2013-03-20 16:19:00,
2013-03-20 12:24:00,39.9,22.3,29.70,WNW,292,2.4,2.4,49,0.00,CLR,,0.00,WeatherDisplay:10.37,2013-03-20 16:24:00,
2013-03-20 12:29:00,40.5,22.3,29.70,WSW,248,1.4,2.3,48,0.00,CLR,,0.00,WeatherDisplay:10.37,2013-03-20 16:29:00,
2013-03-20 12:34:00,40.6,22.9,29.70,West,270,1.8,2.3,49,0.00,CLR,,0.00,WeatherDisplay:10.37,2013-03-20 16:34:00,
2013-03-20 12:39:00,41.7,23.9,29.70,West,270,2.2,2.2,49,0.00,CLR,,0.00,WeatherDisplay:10.37,2013-03-20 16:39:00,
2013-03-20 12:44:00,41.7,23.9,29.71,NW,315,3.1,5.8,49,0.00,CLR,,0.00,WeatherDisplay:10.37,2013-03-20 16:44:00,
2013-03-20 12:49:00,41.9,23.1,29.71,WSW,248,6.4,6.9,47,0.00,CLR,,0.00,WeatherDisplay:10.37,2013-03-20 16:49:00,
2013-03-20 12:54:00,41.9,23.6,29.71,SSW,202,0.9,8.1,48,0.00,CLR,,0.00,WeatherDisplay:10.37,2013-03-20 16:54:00,
2013-03-20 12:59:00,41.9,21.5,29.70,NW,315,2.4,4.6,44,0.00,CLR,,0.00,WeatherDisplay:10.37,2013-03-20 16:59:00,
2013-03-20 13:04:00,41.9,23.1,29.70,NW,315,0.9,5.8,47,0.00,CLR,,0.00,WeatherDisplay:10.37,2013-03-20 17:04:00,
2013-03-20 13:09:00,41.7,22.4,29.70,WNW,292,1.8,5.8,46,0.00,CLR,,0.00,WeatherDisplay:10.37,2013-03-20 17:09:00,
2013-03-20 13:14:00,42.4,23.6,29.70,SSW,202,0.5,2.3,47,0.00,CLR,,0.00,WeatherDisplay:10.37,2013-03-20 17:14:00,
2013-03-20 13:19:00,43.3,24.9,29.70,North,0,0.9,2.3,48,0.00,CLR,,0.00,WeatherDisplay:10.37,2013-03-20 17:19:00,
2013-03-20 13:24:00,43.7,24.2,29.70,WSW,248,0.7,1.1,46,0.00,CLR,,0.00,WeatherDisplay:10.37,2013-03-20 17:24:00,
2013-03-20 13:29:00,44.2,24.2,29.69,West,270,2.6,3.5,45,0.00,CLR,,0.00,WeatherDisplay:10.37,2013-03-20 17:29:00,
2013-03-20 13:34:00,43.5,22.5,29.70,NW,315,3.3,4.6,43,0.00,CLR,,0.00,WeatherDisplay:10.37,2013-03-20 17:34:00,
2013-03-20 13:39:00,42.8,21.8,29.70,NNW,338,3.1,4.6,43,0.00,CLR,,0.00,WeatherDisplay:10.37,2013-03-20 17:39:00,
2013-03-20 13:44:00,42.3,21.9,29.70,West,270,4.3,4.6,44,0.00,CLR,,0.00,WeatherDisplay:10.37,2013-03-20 17:44:00,
2013-03-20 13:49:00,42.4,22.0,29.69,North,0,9.2,9.2,44,0.00,CLR,,0.00,WeatherDisplay:10.37,2013-03-20 17:49:00,
2013-03-20 13:54:00,42.1,21.7,29.69,WSW,248,5.4,5.8,44,0.00,CLR,,0.00,WeatherDisplay:10.37,2013-03-20 17:54:00,
2013-03-20 13:59:00,43.0,23.6,29.69,WSW,248,7.6,7.6,46,0.00,CLR,,0.00,WeatherDisplay:10.37,2013-03-20 17:59:00,
2013-03-20 14:04:00,43.7,24.2,29.69,WSW,248,7.6,8.1,46,0.00,CLR,,0.00,WeatherDisplay:10.37,2013-03-20 18:04:00,
2013-03-20 14:09:00,44.4,23.3,29.69,WSW,248,7.6,8.1,43,0.00,CLR,,0.00,WeatherDisplay:10.37,2013-03-20 18:09:00,
2013-03-20 14:14:00,44.2,23.1,29.69,SSW,202,6.2,6.2,43,0.00,CLR,,0.00,WeatherDisplay:10.37,2013-03-20 18:14:00,
2013-03-20 14:19:00,44.2,23.7,29.69,SSW,202,6.2,6.2,44,0.00,CLR,,0.00,WeatherDisplay:10.37,2013-03-20 18:19:00,
2013-03-20 14:24:00,44.2,23.1,29.69,SSW,202,6.2,6.2,43,0.00,CLR,,0.00,WeatherDisplay:10.37,2013-03-20 18:24:00,
2013-03-20 14:29:00,43.9,23.4,29.68,SSW,202,6.2,6.2,44,0.00,CLR,,0.00,WeatherDisplay:10.37,2013-03-20 18:29:00,
2013-03-20 14:34:00,44.2,23.1,29.68,SSW,202,6.2,6.2,43,0.00,CLR,,0.00,WeatherDisplay:10.37,2013-03-20 18:34:00,
2013-03-20 14:39:00,43.9,22.8,29.68,SSW,202,6.2,6.2,43,0.00,CLR,,0.00,WeatherDisplay:10.37,2013-03-20 18:39:00,
2013-03-20 14:44:00,43.5,23.0,29.68,SSW,202,6.2,6.2,44,0.00,CLR,,0.00,WeatherDisplay:10.37,2013-03-20 18:44:00,
2013-03-20 14:49:00,43.2,21.6,29.68,SSW,202,6.2,6.2,42,0.00,CLR,,0.00,WeatherDisplay:10.37,2013-03-20 18:49:00,
2013-03-20 14:54:00,43.2,22.7,29.68,SSW,202,6.2,6.2,44,0.00,CLR,,0.00,WeatherDisplay:10.37,2013-03-20 18:54:00,
2013-03-20 14:59:00,43.3,22.9,29.68,SSW,202,6.2,6.2,44,0.00,CLR,,0.00,WeatherDisplay:10.37,2013-03-20 18:59:00,
2013-03-20 15:04:00,43.3,22.3,29.69,SSW,202,6.2,6.2,43,0.00,CLR,,0.00,WeatherDisplay:10.37,2013-03-20 19:04:00,
2013-03-20 15:09:00,43.5,21.9,29.69,SSW,202,6.2,6.2,42,0.00,CLR,,0.00,WeatherDisplay:10.37,2013-03-20 19:09:00,
2013-03-20 15:14:00,43.2,22.1,29.68,SSW,202,6.2,6.2,43,0.00,CLR,,0.00,WeatherDisplay:10.37,2013-03-20 19:14:00,
2013-03-20 15:19:00,43.5,23.6,29.68,SSW,202,6.2,6.2,45,0.00,CLR,,0.00,WeatherDisplay:10.37,2013-03-20 19:19:00,
2013-03-20 15:24:00,44.4,23.8,29.68,SSW,202,6.2,6.2,44,0.00,CLR,,0.00,WeatherDisplay:10.37,2013-03-20 19:24:00,
2013-03-20 15:29:00,44.8,21.9,29.68,SSW,202,6.2,6.2,40,0.00,CLR,,0.00,WeatherDisplay:10.37,2013-03-20 19:29:00,
2013-03-20 15:34:00,44.6,21.7,29.68,SSW,202,6.2,6.2,40,0.00,CLR,,0.00,WeatherDisplay:10.37,2013-03-20 19:34:00,
2013-03-20 15:39:00,44.2,21.4,29.68,SSW,202,6.2,6.2,40,0.00,CLR,,0.00,WeatherDisplay:10.37,2013-03-20 19:39:00,
2013-03-20 15:44:00,43.5,22.5,29.68,SSW,202,6.2,6.2,43,0.00,CLR,,0.00,WeatherDisplay:10.37,2013-03-20 19:44:00,
2013-03-20 15:49:00,43.5,21.3,29.68,SSW,202,6.2,6.2,41,0.00,CLR,,0.00,WeatherDisplay:10.37,2013-03-20 19:49:00,
2013-03-20 15:54:00,43.2,21.6,29.68,SSW,202,6.2,6.2,42,0.00,CLR,,0.00,WeatherDisplay:10.37,2013-03-20 19:54:00,
2013-03-20 15:59:00,43.2,22.1,29.68,SSW,202,6.2,6.2,43,0.00,CLR,,0.00,WeatherDisplay:10.37,2013-03-20 19:59:00,
2013-03-20 16:04:00,42.8,21.8,29.68,SSW,202,6.2,6.2,43,0.00,CLR,,0.00,WeatherDisplay:10.37,2013-03-20 20:04:00,
2013-03-20 16:09:00,42.4,22.0,29.68,SSW,202,6.2,6.2,44,0.00,CLR,,0.00,WeatherDisplay:10.37,2013-03-20 20:09:00,
2013-03-20 16:14:00,42.1,21.2,29.68,SSW,202,6.2,6.2,43,0.00,CLR,,0.00,WeatherDisplay:10.37,2013-03-20 20:14:00,
2013-03-20 16:19:00,42.4,22.6,29.68,SSW,202,6.2,6.2,45,0.00,CLR,,0.00,WeatherDisplay:10.37,2013-03-20 20:19:00,
2013-03-20 16:24:00,42.8,22.9,29.69,SSW,202,6.2,6.2,45,0.00,CLR,,0.00,WeatherDisplay:10.37,2013-03-20 20:24:00,
2013-03-20 16:29:00,42.8,23.9,29.69,SSW,202,6.2,6.2,47,0.00,CLR,,0.00,WeatherDisplay:10.37,2013-03-20 20:29:00,
2013-03-20 16:34:00,42.4,24.6,29.69,SSW,202,6.2,6.2,49,0.00,CLR,,0.00,WeatherDisplay:10.37,2013-03-20 20:34:00,
2013-03-20 16:39:00,42.1,24.3,29.69,SSW,202,6.2,6.2,49,0.00,CLR,,0.00,WeatherDisplay:10.37,2013-03-20 20:39:00,
2013-03-20 16:44:00,41.9,25.1,29.69,SSW,202,6.2,6.2,51,0.00,CLR,,0.00,WeatherDisplay:10.37,2013-03-20 20:44:00,
2013-03-20 16:49:00,41.7,25.4,29.69,SSW,202,6.2,6.2,52,0.00,CLR,,0.00,WeatherDisplay:10.37,2013-03-20 20:49:00,
2013-03-20 16:54:00,41.7,25.4,29.69,SSW,202,6.2,6.2,52,0.00,CLR,,0.00,WeatherDisplay:10.37,2013-03-20 20:54:00,
2013-03-20 16:59:00,42.1,25.2,29.69,SSW,202,6.2,6.2,51,0.00,CLR,,0.00,WeatherDisplay:10.37,2013-03-20 20:59:00,
2013-03-20 17:04:00,41.9,25.1,29.69,SSW,202,6.2,6.2,51,0.00,CLR,,0.00,WeatherDisplay:10.37,2013-03-20 21:04:00,
2013-03-20 17:09:00,41.4,24.1,29.70,SSW,202,6.2,6.2,50,0.00,CLR,,0.00,WeatherDisplay:10.37,2013-03-20 21:09:00,
2013-03-20 17:14:00,41.2,24.4,29.70,SSW,202,6.2,6.2,51,0.00,CLR,,0.00,WeatherDisplay:10.37,2013-03-20 21:14:00,
2013-03-20 17:19:00,41.4,25.0,29.70,SSW,202,6.2,6.2,52,0.00,CLR,,0.00,WeatherDisplay:10.37,2013-03-20 21:19:00,
2013-03-20 17:24:00,41.2,24.4,29.70,SSW,202,6.2,6.2,51,0.00,CLR,,0.00,WeatherDisplay:10.37,2013-03-20 21:24:00,
2013-03-20 17:29:00,41.0,24.7,29.70,SSW,202,6.2,6.2,52,0.00,CLR,,0.00,WeatherDisplay:10.37,2013-03-20 21:29:00,
2013-03-20 17:34:00,40.8,25.0,29.71,SSW,202,6.2,6.2,53,0.00,CLR,,0.00,WeatherDisplay:10.37,2013-03-20 21:34:00,
2013-03-20 17:39:00,40.6,24.8,29.71,SSW,202,6.2,6.2,53,0.00,CLR,,0.00,WeatherDisplay:10.37,2013-03-20 21:39:00,
2013-03-20 17:44:00,40.3,24.9,29.71,SSW,202,6.2,6.2,54,0.00,CLR,,0.00,WeatherDisplay:10.37,2013-03-20 21:44:00,
2013-03-20 17:49:00,39.9,24.6,29.71,SSW,202,6.2,6.2,54,0.00,CLR,,0.00,WeatherDisplay:10.37,2013-03-20 21:49:00,
2013-03-20 17:54:00,39.7,24.9,29.72,SSW,202,6.2,6.2,55,0.00,CLR,,0.00,WeatherDisplay:10.37,2013-03-20 21:54:00,
2013-03-20 17:59:00,39.6,24.7,29.72,SSW,202,6.2,6.2,55,0.00,CLR,,0.00,WeatherDisplay:10.37,2013-03-20 21:59:00,
2013-03-20 18:04:00,39.2,23.9,29.72,WSW,248,9.9,9.9,54,0.00,CLR,,0.00,WeatherDisplay:10.37,2013-03-20 22:04:00,
2013-03-20 18:09:00,38.8,23.6,29.72,WSW,248,2.4,5.8,54,0.00,CLR,,0.00,WeatherDisplay:10.37,2013-03-20 22:09:00,
2013-03-20 18:14:00,38.7,23.9,29.72,SSE,158,0.5,3.5,55,0.00,CLR,,0.00,WeatherDisplay:10.37,2013-03-20 22:14:00,
2013-03-20 18:19:00,38.7,23.4,29.72,SW,225,1.6,5.8,54,0.00,CLR,,0.00,WeatherDisplay:10.37,2013-03-20 22:19:00,
2013-03-20 18:24:00,38.5,23.3,29.72,SW,225,0.9,5.8,54,0.00,CLR,,0.00,WeatherDisplay:10.37,2013-03-20 22:24:00,
2013-03-20 18:29:00,38.5,23.7,29.73,WSW,248,1.1,1.1,55,0.00,CLR,,0.00,WeatherDisplay:10.37,2013-03-20 22:29:00,
2013-03-20 18:34:00,38.5,24.1,29.73,SW,225,0.5,2.3,56,0.00,CLR,,0.00,WeatherDisplay:10.37,2013-03-20 22:34:00,
2013-03-20 18:39:00,38.1,23.8,29.73,SSW,202,4.5,5.8,56,0.00,CLR,,0.00,WeatherDisplay:10.37,2013-03-20 22:39:00,
2013-03-20 18:44:00,38.1,24.2,29.74,SSW,202,2.4,2.4,57,0.00,CLR,,0.00,WeatherDisplay:10.37,2013-03-20 22:44:00,
2013-03-20 18:49:00,38.3,25.2,29.74,WSW,248,6.4,6.4,59,0.00,CLR,,0.00,WeatherDisplay:10.37,2013-03-20 22:49:00,
2013-03-20 18:54:00,38.3,25.6,29.74,South,180,2.4,5.8,60,0.00,CLR,,0.00,WeatherDisplay:10.37,2013-03-20 22:54:00,
2013-03-20 18:59:00,38.3,26.0,29.74,West,270,8.3,8.3,61,0.00,CLR,,0.00,WeatherDisplay:10.37,2013-03-20 22:59:00,
2013-03-20 19:04:00,38.1,25.8,29.74,SW,225,4.5,5.8,61,0.00,CLR,,0.00,WeatherDisplay:10.37,2013-03-20 23:04:00,
2013-03-20 19:09:00,38.1,25.4,29.74,SW,225,3.3,4.6,60,0.00,CLR,,0.00,WeatherDisplay:10.37,2013-03-20 23:09:00,
2013-03-20 19:14:00,38.1,25.4,29.74,West,270,3.1,3.1,60,0.00,CLR,,0.00,WeatherDisplay:10.37,2013-03-20 23:14:00,
2013-03-20 19:19:00,37.9,25.3,29.75,SW,225,0.5,5.8,60,0.00,CLR,,0.00,WeatherDisplay:10.37,2013-03-20 23:19:00,
2013-03-20 19:24:00,37.9,25.3,29.75,SSW,202,10.2,10.2,60,0.00,CLR,,0.00,WeatherDisplay:10.37,2013-03-20 23:24:00,
2013-03-20 19:29:00,37.9,25.7,29.75,WSW,248,2.0,4.6,61,0.00,CLR,,0.00,WeatherDisplay:10.37,2013-03-20 23:29:00,
2013-03-20 19:34:00,37.8,25.5,29.75,WSW,248,6.2,6.2,61,0.00,CLR,,0.00,WeatherDisplay:10.37,2013-03-20 23:34:00,
2013-03-20 19:40:00,37.8,25.5,29.75,SSW,202,0.7,4.6,61,0.00,CLR,,0.00,WeatherDisplay:10.37,2013-03-20 23:40:00,
2013-03-20 19:45:00,37.6,24.9,29.75,WSW,248,0.7,2.3,60,0.00,CLR,,0.00,WeatherDisplay:10.37,2013-03-20 23:45:00,
2013-03-20 19:50:00,37.2,25.0,29.75,SW,225,2.2,3.5,61,0.00,CLR,,0.00,WeatherDisplay:10.37,2013-03-20 23:50:00,
2013-03-20 19:55:00,37.0,24.8,29.76,SW,225,0.5,5.8,61,0.00,CLR,,0.00,WeatherDisplay:10.37,2013-03-20 23:55:00,
2013-03-20 20:00:00,36.7,24.5,29.76,WSW,248,1.1,3.5,61,0.00,CLR,,0.00,WeatherDisplay:10.37,2013-03-21 00:00:00,
2013-03-20 20:05:00,36.3,24.1,29.76,SW,225,0.2,1.1,61,0.00,CLR,,0.00,WeatherDisplay:10.37,2013-03-21 00:05:00,
2013-03-20 20:10:00,36.0,24.2,29.76,SSW,202,1.8,4.6,62,0.00,CLR,,0.00,WeatherDisplay:10.37,2013-03-21 00:10:00,
2013-03-20 20:15:00,35.6,23.9,29.76,West,270,1.6,2.3,62,0.00,CLR,,0.00,WeatherDisplay:10.37,2013-03-21 00:15:00,
2013-03-20 20:20:00,35.4,23.7,29.76,SSW,202,1.6,1.6,62,0.00,CLR,,0.00,WeatherDisplay:10.37,2013-03-21 00:20:00,
2013-03-20 20:25:00,35.2,23.5,29.76,WSW,248,1.6,1.6,62,0.00,CLR,,0.00,WeatherDisplay:10.37,2013-03-21 00:25:00,
2013-03-20 20:30:00,34.9,23.2,29.76,WSW,248,0.2,0.2,62,0.00,CLR,,0.00,WeatherDisplay:10.37,2013-03-21 00:30:00,
2013-03-20 20:35:00,34.7,23.4,29.76,West,270,0.0,1.1,63,0.00,CLR,,0.00,WeatherDisplay:10.37,2013-03-21 00:35:00,
2013-03-20 20:40:00,34.5,23.2,29.76,WSW,248,0.2,0.2,63,0.00,CLR,,0.00,WeatherDisplay:10.37,2013-03-21 00:40:00,
2013-03-20 20:45:00,34.3,23.0,29.76,WSW,248,0.0,0.0,63,0.00,CLR,,0.00,WeatherDisplay:10.37,2013-03-21 00:45:00,
2013-03-20 20:50:00,34.0,22.7,29.76,SW,225,0.0,0.0,63,0.00,CLR,,0.00,WeatherDisplay:10.37,2013-03-21 00:50:00,
2013-03-20 20:55:00,33.8,22.5,29.76,WSW,248,0.0,0.0,63,0.00,CLR,,0.00,WeatherDisplay:10.37,2013-03-21 00:55:00,
2013-03-20 21:00:00,33.4,22.2,29.76,WSW,248,0.0,0.0,63,0.00,CLR,,0.00,WeatherDisplay:10.37,2013-03-21 01:00:00,
2013-03-20 21:05:00,33.3,22.4,29.77,WSW,248,0.0,0.0,64,0.00,CLR,,0.00,WeatherDisplay:10.37,2013-03-21 01:05:00,
2013-03-20 21:10:00,33.1,22.2,29.77,WSW,248,0.0,0.0,64,0.00,CLR,,0.00,WeatherDisplay:10.37,2013-03-21 01:10:00,
2013-03-20 21:15:00,32.7,21.9,29.77,WSW,248,0.0,0.0,64,0.00,CLR,,0.00,WeatherDisplay:10.37,2013-03-21 01:15:00,
2013-03-20 21:20:00,32.5,21.7,29.77,WSW,248,0.0,0.0,64,0.00,CLR,,0.00,WeatherDisplay:10.37,2013-03-21 01:20:00,
2013-03-20 21:25:00,32.2,21.7,29.77,WSW,248,0.0,0.0,65,0.00,CLR,,0.00,WeatherDisplay:10.37,2013-03-21 01:25:00,
2013-03-20 21:30:00,32.0,21.6,29.77,WSW,248,0.0,0.0,65,0.00,CLR,,0.00,WeatherDisplay:10.37,2013-03-21 01:30:00,
2013-03-20 21:35:00,31.6,21.2,29.77,WSW,248,0.0,0.0,65,0.00,CLR,,0.00,WeatherDisplay:10.37,2013-03-21 01:35:00,
2013-03-20 21:40:00,31.3,21.2,29.77,WSW,248,0.0,0.0,66,0.00,CLR,,0.00,WeatherDisplay:10.37,2013-03-21 01:40:00,
2013-03-20 21:45:00,31.1,21.1,29.77,WSW,248,0.0,0.0,66,0.00,CLR,,0.00,WeatherDisplay:10.37,2013-03-21 01:45:00,
2013-03-20 21:50:00,30.7,20.7,29.77,WSW,248,0.0,0.0,66,0.00,CLR,,0.00,WeatherDisplay:10.37,2013-03-21 01:50:00,
2013-03-20 21:55:00,30.4,20.4,29.77,WSW,248,0.0,0.0,66,0.00,CLR,,0.00,WeatherDisplay:10.37,2013-03-21 01:55:00,
2013-03-20 22:00:00,30.2,20.2,29.77,WSW,248,0.0,0.0,66,0.00,CLR,,0.00,WeatherDisplay:10.37,2013-03-21 02:00:00,
2013-03-20 22:05:00,29.8,19.9,29.77,WSW,248,0.0,0.0,66,0.00,CLR,,0.00,WeatherDisplay:10.37,2013-03-21 02:05:00,
2013-03-20 22:10:00,29.8,20.2,29.77,WSW,248,0.0,0.0,67,0.00,CLR,,0.00,WeatherDisplay:10.37,2013-03-21 02:10:00,
2013-03-20 22:15:00,29.5,19.9,29.77,WSW,248,0.0,0.0,67,0.00,CLR,,0.00,WeatherDisplay:10.37,2013-03-21 02:15:00,
2013-03-20 22:20:00,29.3,20.0,29.77,SW,225,0.0,0.0,68,0.00,CLR,,0.00,WeatherDisplay:10.37,2013-03-21 02:20:00,
2013-03-20 22:25:00,29.1,19.9,29.77,SW,225,0.0,0.0,68,0.00,CLR,,0.00,WeatherDisplay:10.37,2013-03-21 02:25:00,
2013-03-20 22:30:00,29.1,19.9,29.77,SW,225,0.0,0.0,68,0.00,CLR,,0.00,WeatherDisplay:10.37,2013-03-21 02:30:00,
2013-03-20 22:35:00,28.8,19.5,29.77,SW,225,0.0,0.0,68,0.00,CLR,,0.00,WeatherDisplay:10.37,2013-03-21 02:35:00,
2013-03-20 22:40:00,28.6,19.7,29.77,SW,225,0.0,0.0,69,0.00,CLR,,0.00,WeatherDisplay:10.37,2013-03-21 02:40:00,
2013-03-20 22:45:00,28.4,19.9,29.77,SW,225,0.0,0.0,70,0.00,CLR,,0.00,WeatherDisplay:10.37,2013-03-21 02:45:00,
2013-03-20 22:50:00,28.4,19.9,29.76,SW,225,0.0,0.0,70,0.00,CLR,,0.00,WeatherDisplay:10.37,2013-03-21 02:50:00,
2013-03-20 22:55:00,28.2,19.7,29.76,SW,225,0.0,0.0,70,0.00,CLR,,0.00,WeatherDisplay:10.37,2013-03-21 02:55:00,
2013-03-20 23:00:00,28.0,19.5,29.76,SW,225,0.0,0.0,70,0.00,CLR,,0.00,WeatherDisplay:10.37,2013-03-21 03:00:00,
2013-03-20 23:05:00,27.9,19.3,29.76,SW,225,0.0,0.0,70,0.00,CLR,,0.00,WeatherDisplay:10.37,2013-03-21 03:05:00,
2013-03-20 23:10:00,27.7,19.5,29.76,SW,225,0.0,0.0,71,0.00,CLR,,0.00,WeatherDisplay:10.37,2013-03-21 03:10:00,
2013-03-20 23:15:00,27.7,19.5,29.76,SW,225,0.0,0.0,71,0.00,CLR,,0.00,WeatherDisplay:10.37,2013-03-21 03:15:00,
2013-03-20 23:20:00,27.5,19.3,29.76,SW,225,0.0,0.0,71,0.00,CLR,,0.00,WeatherDisplay:10.37,2013-03-21 03:20:00,
2013-03-20 23:25:00,27.3,19.5,29.76,SW,225,0.0,0.0,72,0.00,CLR,,0.00,WeatherDisplay:10.37,2013-03-21 03:25:00,
2013-03-20 23:30:00,27.3,19.5,29.76,SW,225,0.0,0.0,72,0.00,CLR,,0.00,WeatherDisplay:10.37,2013-03-21 03:30:00,
2013-03-20 23:35:00,27.0,19.1,29.76,SW,225,0.0,0.0,72,0.00,CLR,,0.00,WeatherDisplay:10.37,2013-03-21 03:35:00,
2013-03-20 23:40:00,27.0,19.1,29.76,SW,225,0.0,0.0,72,0.00,CLR,,0.00,WeatherDisplay:10.37,2013-03-21 03:40:00,
2013-03-20 23:45:00,27.0,19.1,29.76,SW,225,0.0,0.0,72,0.00,CLR,,0.00,WeatherDisplay:10.37,2013-03-21 03:45:00,
2013-03-20 23:50:00,27.0,19.1,29.76,SW,225,0.0,0.0,72,0.00,CLR,,0.00,WeatherDisplay:10.37,2013-03-21 03:50:00,
2013-03-20 23:55:00,26.8,19.0,29.76,SW,225,0.0,0.0,72,0.00,CLR,,0.00,WeatherDisplay:10.37,2013-03-21 03:55:00,